Location: Caltech
(34.1382°N, 118.1253°W)
Time: 06:40:39
(UTC-07:00)

ERBS - Visible Passes

Search period start: 25 July 2014 00:00
Search period end: 04 August 2014 00:00
Orbit: 471 x 487 km, 57.0° (Epoch: 24 July)

Date Brightness Start Highest point End Pass type
(mag) Time Alt. Az. Time Alt. Az. Time Alt. Az.
25 Jul 4.7 03:37:04 19° ESE 03:37:04 19° ESE 03:39:30 10° ENE visible
25 Jul 3.7 05:11:17 12° WSW 05:14:15 32° NW 05:17:39 10° NNE visible
26 Jul 5.3 03:10:20 13° E 03:10:20 13° E 03:11:14 10° E visible
26 Jul 3.4 04:44:33 23° W 04:46:19 38° NW 04:49:50 10° NNE visible
27 Jul 3.0 04:17:45 41° WNW 04:18:22 46° NW 04:22:00 10° NNE visible
28 Jul 3.1 03:50:54 51° NNW 03:50:54 51° NNW 03:54:07 10° NNE visible
29 Jul 4.1 03:23:58 34° NNE 03:23:58 34° NNE 03:26:14 10° NE visible
30 Jul 5.1 02:57:00 21° NE 02:57:00 21° NE 02:58:19 10° NE visible
31 Jul 5.8 02:29:58 13° NE 02:29:58 13° NE 02:30:22 10° NE visible
31 Jul 5.1 04:04:10 11° NW 04:04:42 11° NW 04:06:00 10° NNW visible
01 Aug 5.2 03:37:06 13° NNW 03:37:06 13° NNW 03:38:31 10° N visible
02 Aug 5.4 03:09:59 13° NNW 03:09:59 13° NNW 03:10:53 10° N visible
03 Aug 5.8 02:42:49 11° N 02:42:49 11° N 02:43:10 10° N visible
